STARLINK-4713 (53822 NORAD) Tracking and Keplerian Element Data

This shows tracking and keplerian element data for the satellite.

Feedback or suggestion? Click here.




ElementValue
Catalog53822
NameSTARLINK-4713
Epoch Orbit353
Epoch Day280.56206978
Epoch Year2022
RAAN163.7779
Inclination53.1893
Eccentricity0.0035107
Argument of Perigee70.8516
Mean Anonmoly296.7032
Mean Motion16.37848764
Decay Rate0.17043645
L11 53822U 22114E 22280.56206978 .17043645 12483-4 88184-3 0 9991
L22 53822 53.1893 163.7779 0035107 70.8516 296.7032 16.37848764 3538



Live tracking and technical data element details for STARLINK-4713 (NORAD 53822). STARLINK-4713 can be tracked NOW for your location showing map with azimuth and elevation plus other details from your city location.







IsCatalogInMostPopularTable: catalog: 53822, numindb: -1

Insert: records affected: 1


GetName: 53822 STARLINK-4713

Hit Count: inserted at: Thu, 08 Dec 2022 09:58:05 GMT